Regional Weather Roundup
Issued by NWS Wakefield, VA

Home | Current Version | Previous Version | Text Only | Print | Product List | Glossary Off
Versions: 1 2 3 4 5 6 7 8 9 10 11 12 13 14 15 16 17 18 19 20 21 22 23 24 25 26 27 28 29 30 31 32 33 34 35 36 37

000
ASUS41 KAKQ 290015
RWRAKQ

REGIONAL WEATHER ROUNDUP
NATIONAL WEATHER SERVICE WAKEFIELD VA
800 PM EDT TUE JUL 28 2015

Note: "fair" indicates few or no clouds below 12,000 feet with no
significant weather and/or obstructions to visibility. * = Denotes
station may not report precipitation (e.g., rain,snow,etc.),
thunder or fog.

VAZ042-051-052>054-056-290100-
NORTHERN VIRGINIA

CITY           SKY/WX    TMP DP  RH WIND       PRES   REMARKS
WASH NATIONAL  MOCLDY    81  72  74 SW8       29.98R
DULLES         TSTM      74  72  93 SW10G20   29.99R
FORT BELVOIR   MOCLDY    77  74  91 CALM      29.98R
QUANTICO       CLOUDY    80  72  76 MISG      29.98S
FREDERICKSBRG* CLOUDY    77  77 100 CALM      29.99R
STAFFORD*      CLOUDY    76  71  86 CALM      30.04R
WARRENTON      CLOUDY    75  73  94 NE5       30.00R
CULPEPER*      LGT RAIN  72  72  98 S3        30.00R
MANASSAS*      NOT AVBL
LEESBURG*      CLOUDY    79  75  89 S16G23    30.01R
WINCHESTER     MOCLDY    82  72  69 E3        29.98R
FRONT ROYAL*   FAIR      79  73  83 CALM      29.97R
LURAY*         CLOUDY    82  77  83 CALM      29.99R
$$

VAZ048-049-060>072-079>083-290100-
CENTRAL AND SOUTH CENTRAL VIRGINIA

CITY           SKY/WX    TMP DP  RH WIND       PRES   REMARKS
RICHMOND       CLOUDY    81  74  79 SE5       29.97S
CHESTERFIELD*  FAIR      79  64  61 CALM      29.98S
PETERSBURG*    CLOUDY    79  79 100 CALM      29.98R
HANOVER        CLOUDY    77  74  90 NE3       30.00R
TAPPAHANNOCK*  CLOUDY    77  74  88 CALM      29.99R FOG
QUINTON*       FAIR      79  75  88 NE3       29.97R
CHARLOTTSVILLE CLOUDY    73  70  90 NW3       30.01R FOG
GORDONSVILLE*  NOT AVBL
ORANGE*        CLOUDY    75  73  94 CALM      30.01R
LOUISA*        LGT RAIN  75  73  94 CALM      29.98R
BUMPASS*       CLOUDY    75  73  95 N8        29.99R
FARMVILLE*     MOCLDY    76  76  99 S3        29.97S
CREWE*         FAIR     N/A N/A N/A CALM      29.98R
FORT PICKETT*  FAIR      77  75  94 S6        29.99R
CHASE CITY*    FAIR      75  75 100 CALM      29.99R
CLARKSVILLE*   FAIR      73  73 100 SW5       30.00R
SOUTH HILL*    MOCLDY    76  74  95 CALM      30.05R
LAWRENCEVILLE* FAIR      79  77  94 CALM      29.98R
EMPORIA*       MOCLDY    81  73  78 CALM      29.98S
$$

VAZ088>098-290100-
SOUTHEAST VIRGINIA

CITY           SKY/WX    TMP DP  RH WIND       PRES   REMARKS
NORFOLK        PTCLDY    83  66  56 S6        29.97S
VIRGINIA BEACH MOCLDY    82  71  69 SE8       29.97S
NORFOLK NAVAL  MOCLDY    82  68  62 SW5       29.99R
WEST POINT*    CLOUDY    84  74  71 CALM      29.98F
SALUDA*        FAIR      79  76  91 E5        29.97F
NEWPORT NEWS   MOCLDY    84  68  58 SE3       29.97F
LANGLEY AFB    NOT AVBL
FORT EUSTIS    MOCLDY    84  67  57 VRB1      29.96S
WILLIAMSBURG*  MOCLDY    82  73  74 CALM      29.98S
HR EXEC AP*    FAIR      79  72  78 CALM      29.99F
FRANKLIN*      MOCLDY    81  73  76 E3        29.98S
WAKEFIELD      MOCLDY    80  74  81 CALM      29.97S
$$

VAZ020-022-025-037-045-290100-
WEST CENTRAL AND SOUTHWEST VIRGINIA

CITY           SKY/WX    TMP DP  RH WIND       PRES   REMARKS
STAUNTON*      CLOUDY    82  71  70 S5        30.03R
WAYNESBORO*    MOCLDY    75  73  93 E7        30.03R
HOT SPRINGS VA DRZL/FOG  69  69 100 N8        30.14R VSB 1/2
LYNCHBURG      CLOUDY    75  71  87 W3        30.02R
DANVILLE       MOCLDY    75  72  90 E3        29.99S
SOUTH BOSTON*  CLOUDY    74  73  94 S3        29.99R
MARTINSVILLE   CLOUDY    77  77 100 CALM      30.03R
ROANOKE        CLOUDY    79  72  79 E12       30.03R
BLACKSBURG     PTCLDY    74  72  93 E3        30.08R
DUBLIN*          N/A     78  72  80 CALM      30.06S
MARION*        PTCLDY    80  71  74 SW6       30.09S
HILLSVILLE*    CLOUDY    73  71  94 SE5       30.09R
RICHLANDS*     FAIR      80  72  77 CALM      30.07S
WISE*          MOCLDY    81  66  61 CALM      30.08S
ABINGDON*      PTCLDY    82  69  65 NW3       30.04R
$$

MDZ021>025-VAZ099-100-290100-
SOUTHERN MARYLAND AND THE DELMARVA PENINSULA

CITY           SKY/WX    TMP DP  RH WIND       PRES   REMARKS
PATUXENT RIVER MOCLDY    79  72  79 CALM      29.96F
BAY BRIDGE APT   N/A     82  72  69 S5        29.96S
LEONARDTOWN    MOCLDY    79  70  73 CALM      29.99S
DOVER          CLEAR     82  75  78 S7        29.96R
GEORGETOWN     PTCLDY    76  71  85 CALM      29.98R
EASTON         PTCLDY    86  73  66 SW8       30.00S
CAMBRIDGE      PTCLDY    81  72  74 S3        29.97S
SALISBURY      PTCLDY    77  74  90 SW3       29.98S
OCEAN CITY     MOCLDY    81  72  74 SW7       29.98R
WALLOPS ISLAND PTCLDY    78  72  81 S6        29.99S
ACCOMACK*      CLEAR    N/A N/A N/A S5        29.98S
$$

NCZ012>017-030>032-290100-
NORTH CENTRAL AND EASTERN NORTH CAROLINA

CITY           SKY/WX    TMP DP  RH WIND       PRES   REMARKS
ROANOKE RAPIDS FAIR      81  70  69 CALM      29.98R
RALEIGH        LGT RAIN  84  71  65 CALM      29.99R
ELIZABETH CITY PTCLDY    81  71  71 SE5       29.98S
AHOSKIE*       MOCLDY    78  67  67 CALM      29.98S
EDENTON*         N/A     82  70  68 SW8       29.98S
CURRITUCK*     PTCLDY    82  70  67 CALM      29.99S
KILL DEVIL HLS PTCLDY    81  68  64 SE5       29.98F
MANTEO         PTCLDY    80  71  74 SE5       29.99F
CAPE HATTERAS  PTCLDY    80  68  66 E5        29.99R
TARBORO*         N/A     83  72  69 CALM      29.98R
GOLDSBORO      NOT AVBL
WASHINGTON     MOCLDY    80  69  67 CALM      29.98S
GREENVILLE     MOCLDY    82  72  69 SE7       29.99S
NEW BERN       MOCLDY    82  68  62 E5        29.99R
WILMINGTON     MOCLDY    81  71  71 E6        29.97R
$$

VAZ048-290100-
ELSEWHERE

CITY           SKY/WX    TMP DP  RH WIND       PRES   REMARKS
HARRISBURG PA  PTCLDY    83  71  67 CALM      29.97R
BALTIMORE      PTCLDY    84  70  62 S3        29.96R
ANNAPOLIS      CLEAR     83  71  67 S5        29.95F
ANDREWS AFB    MOCLDY    79  72  78 SW10      29.97S
PHILADELPHIA   PTCLDY    88  70  55 SW8       29.96R
HENDERSON NC   LGT RAIN  75  72  88 NW3       30.00R
GREENSBORO     LGT RAIN  78  75  90 CALM      29.99S FOG
ROCKY MOUNT    CLOUDY    81  73  76 CALM      29.97R
$$

VAZ100-290100-
MARINE

STATION/POSITION TIME  TEMP    WIND        PRES    WAVE   SWELL
                       AIR SEA DIR/SP/G            HT/PER HT/PER
                 (UTC) (F)     (DEG/KT/KT) (MB)    (FT/S) (FT/S)
BRANDYWINE LGT   2300   78 74  190/ 14/ 15 1014.6F
CAPE MAY NJ      2300   78 82  170/  8/ 11 1014.4F
LEWES DE         2300   81 77  230/  7/ 11 1014.5F
15NM E FENWICK I 2350   79 79  210/ 12/ 14 1015.1S   3/ 7   2/ 7
OCEAN-CITY-INLET 2300   78 76  160/  2/  3 1014.3F
WACHAPREAGUE VA  2300   82 85  190/  9/ 10 1015.3R
GOOSES REEF MD   0000   82 81  240/  8/ 12 1015.6F
COVE POINT MD    2300   82     220/  7/  9 1015.6R
SOLOMONS ISLAND  2300      84                N/A
BISHOPS HEAD MD  2300   83 86  200/ 12/ 14 1014.1R
POTOMAC MD       0000   82 84  260/  8/  8 1013.6F   1/ 2
CAMBRIDGE MD     2300   85 83  200/  5/ 10 1014.1R
LEWISETTA VA     2300   81 86  250/  3/  5 1014.7R
RAPPAHANNOCK LGT 2300          140/  8/  9 1015.6R
STINGRAY PT      0000   83 83  180/ 10/ 12 1014.8F   1/ 2
YORK RVR RNG VA  2300   83     150/  7/  8 1014.5R
YORKTOWN VA      2300   85 84  230/  4/  4 1014.7R
JAMESTOWN VA     0000   83 85   90/  4/  4   N/A
DOMINION TERM VA 2300   85     210/  6/  8 1014.7F
KIPTOPEKE VA     2300      83  170/ 10/ 13   N/A
CHES BAY BRIDGE  2300   83 80  120/  6/ 10 1014.5R
CAPE HENRY VA    2300   81     160/  9/ 11   N/A
CHESAPEAKE LGHT  2300   80     170/ 13/ 14 1015.7S
WILLOUBY STN VA  2300   85     270/  3/  6 1015.9R
CAPE HENRY BUOY  2328      81                N/A     2/11
1ST LANDING BUOY 0000      80              1014.8R   1/ 4
CAPE CHARLES BUO 2326      81                N/A     2/ 7   2/ 7
OFFSHORE WE BUOY 2311      82                N/A     2/ 7   2/ 7
64NM E OF VA BCH 2350   80 82  160/  4/  6 1015.4R   2/11   2/11
DUCK PIER NC     2300   82 77  130/ 12/ 14 1014.6R
44100 DUCK FRF   2324      82                N/A     2/11
44056 DUCK FRF   2311      81                N/A     2/11
OREGON INLET NC  2300   81 87  110/  5/  7 1015.7R
HATTERAS NC      2300   82 84  100/  7/  8 1015.1R
CAPE LOOKOUT NC  0000   81      70/ 11/ 12 1014.4S
$$



USA.gov is the U.S. government's official web portal to all federal, state and local government web resources and services.